Eagle Creek, IN

3:19 PM EDT on June 20, 2018 (GMT -0400)
Eagle Creek

Weather History for KEYE - November, 2017

Change the Weather History Date:

Tuesday, November 14, 2017

  Actual Average Record
Temperature  
Mean Temperature 41 °F 45 °F  
Max Temperature 51 °F 53 °F 70 °F (2011)
Min Temperature 30 °F 37 °F 18 °F (2014)
Degree Days  
Heating Degree Days 24 20  
Month to date heating degree days 268 247  
Since 1 July heating degree days 545 639  
Cooling Degree Days 0 0  
Month to date cooling degree days 0 0  
Year to date cooling degree days 1146 1058  
Moisture  
Dew Point 31 °F    
Average Humidity 71    
Maximum Humidity 92    
Minimum Humidity 50    
Precipitation  
Precipitation 0.00 in 0.13 in 2.50 in (1993)
Month to date precipitation 1.23 1.70  
Year to date precipitation 37.29 35.71  
Sea Level Pressure  
Sea Level Pressure 30.33 in    
Wind  
Wind Speed 5 mph (SE)    
Max Wind Speed 13 mph    
Max Gust Speed 18 mph    
Visibility 6 miles    
Events Fog    
T = Trace of Precipitation, MM = Missing Value Source: NWS Daily Summary

Daily Weather History Graph

Daily Weather History Graph

Search for Another Location

Airport or City:

Astronomy

Nov. 14, 2017 Rise Set
Actual Time 7:29 AM EST 5:29 PM EST
Civil Twilight 7:00 AM EST 5:58 PM EST
Nautical Twilight 6:27 AM EST 6:31 PM EST
Astronomical Twilight 5:55 AM EST 7:03 PM EST
Moon 3:29 AM EST (11/14) 3:53 PM EST (11/14)
Length of Visible Light 10h 58m
Length of Day
10h 00m
Waning Crescent, 14% of the Moon is Illuminated
Nov 14
Waning Crescent
Nov 18
New
Nov 26
First Quarter
Dec 3
Full
Dec 10
Last Quarter

Hourly Weather History & Observations

Time (EST) Temp. Windchill Dew Point Humidity Pressure Visibility Wind Dir Wind Speed Gust Speed Precip Events Conditions
12:53 AM 33.1 °F - 30.0 °F 89% 30.41 in 4.0 mi Calm Calm - N/A   Clear
1:02 AM 32.0 °F - 30.0 °F 92% 30.39 in 1.8 mi Calm Calm - N/A   Clear
1:11 AM 34.0 °F - 30.9 °F 89% 30.39 in 3.0 mi Calm Calm - N/A   Clear
1:53 AM 35.1 °F - 30.9 °F 85% 30.40 in 4.0 mi Calm Calm - N/A   Clear
2:33 AM 34.0 °F - 30.0 °F 85% 30.39 in 2.0 mi Calm Calm - N/A   Clear
2:40 AM 33.1 °F - 30.9 °F 92% 30.39 in 0.8 mi Calm Calm - N/A   Clear
2:48 AM 33.8 °F - 30.2 °F 87% 30.39 in 0.5 mi Calm Calm - N/A Fog Fog
2:53 AM 32.0 °F - 30.0 °F 92% 30.41 in 0.2 mi Calm Calm - N/A Fog Fog
3:08 AM 32.0 °F - 30.0 °F 92% 30.39 in 1.0 mi Calm Calm - N/A   Mist
3:16 AM 32.0 °F - 30.0 °F 92% 30.39 in 1.5 mi Calm Calm - N/A   Partly Cloudy
3:25 AM 33.1 °F - 30.0 °F 89% 30.38 in 3.0 mi Calm Calm - N/A   Clear
3:53 AM 34.0 °F 31.0 °F 30.9 °F 89% 30.40 in 3.0 mi East 3.5 mph - N/A   Clear
4:53 AM 33.1 °F 30.0 °F 30.9 °F 92% 30.38 in 5.0 mi East 3.5 mph - N/A   Clear
5:53 AM 34.0 °F - 30.9 °F 89% 30.38 in 5.0 mi Calm Calm - N/A   Clear
6:39 AM 32.0 °F 28.7 °F 28.9 °F 88% 30.35 in 1.8 mi East 3.5 mph - N/A   Clear
6:50 AM 30.2 °F 26.7 °F 28.4 °F 93% 30.36 in 3.0 mi ENE 3.5 mph - N/A   Clear
6:53 AM 32.0 °F 28.7 °F 28.9 °F 88% 30.38 in 5.0 mi East 3.5 mph - N/A   Clear
7:29 AM 30.9 °F - 27.0 °F 85% 30.37 in 1.8 mi Calm Calm - N/A   Clear
7:37 AM 30.9 °F - 27.0 °F 85% 30.37 in 2.5 mi Calm Calm - N/A   Clear
7:51 AM 30.2 °F - 28.4 °F 93% 30.37 in 4.0 mi Calm Calm - N/A   Clear
7:53 AM 30.9 °F - 28.0 °F 89% 30.40 in 4.0 mi Calm Calm - N/A   Clear
8:53 AM 36.0 °F 33.3 °F 32.0 °F 86% 30.41 in 7.0 mi East 3.5 mph - N/A   Clear
9:53 AM 41.0 °F 35.8 °F 33.1 °F 73% 30.39 in 8.0 mi SE 8.1 mph - N/A   Clear
10:53 AM 44.1 °F 39.0 °F 33.1 °F 65% 30.37 in 10.0 mi SE 9.2 mph - N/A   Clear
11:53 AM 46.0 °F 41.9 °F 33.1 °F 61% 30.35 in 10.0 mi SSE 8.1 mph - N/A   Clear
12:53 PM 48.0 °F - 34.0 °F 58% 30.30 in 10.0 mi South 8.1 mph - N/A   Clear
1:53 PM 48.9 °F - 33.1 °F 54% 30.26 in 10.0 mi SSE 9.2 mph - N/A   Clear
2:53 PM 50.0 °F - 34.0 °F 54% 30.24 in 10.0 mi ESE 10.4 mph - N/A   Clear
3:53 PM 51.1 °F - 33.1 °F 50% 30.22 in 10.0 mi SSE 9.2 mph - N/A   Clear
4:53 PM 50.0 °F - 33.1 °F 52% 30.22 in 10.0 mi SE 8.1 mph - N/A   Clear
5:53 PM 46.9 °F - 33.1 °F 59% 30.21 in 10.0 mi SE 5.8 mph - N/A   Clear
6:53 PM 46.0 °F 43.1 °F 33.1 °F 61% 30.19 in 10.0 mi SE 5.8 mph - N/A   Clear
7:53 PM 45.0 °F 41.8 °F 33.1 °F 63% 30.18 in 10.0 mi SE 5.8 mph - N/A   Clear
8:53 PM 44.1 °F 40.8 °F 32.0 °F 63% 30.17 in 10.0 mi SE 5.8 mph - N/A   Clear
9:53 PM 44.1 °F 41.5 °F 33.1 °F 65% 30.18 in 10.0 mi South 4.6 mph - N/A   Mostly Cloudy
10:53 PM 43.0 °F 39.5 °F 33.1 °F 68% 30.16 in 10.0 mi SSE 5.8 mph - N/A   Mostly Cloudy
11:53 PM 42.1 °F 37.7 °F 33.1 °F 70% 30.13 in 10.0 mi SSE 6.9 mph - N/A   Partly Cloudy